Home   Weather   Red Deer   Past weeks

Flag for Canada Past Weather in Red Deer, Alberta, Canada — Yesterday and Last 2 Weeks

Now
75 °F

Passing clouds.


Feels Like: 78 °F
Forecast: 46 / 75 °F
Wind: 15 mph from Southeast

Location: Red Deer

Current Time: Jun 25, 2017 at 2:37:19 pm

Latest Report: Jun 25, 2017 at 2:00 pm


Visibility: 15 mi

Pressure: 30.19 "Hg (27.35 "Hg at 857m altitude)

Humidity: 47%

Dew Point: 54 °F

Location of Red DeerLocation

Past Weather in Red Deer — Graph

°F

Red Deer Temperature Yesterday

Maximum temperature yesterday: 70 °F (at 5:00 pm)
Minimum temperature yesterday: 45 °F (at 1:00 am)
Average temperature yesterday: 58 °F

High & Low Weather Summary for the Past Weeks

 TemperatureHumidityPressure
High77 °F (Jun 20, 5:00 pm)100% (Jun 10, 2:00 pm)30.37 "Hg (Jun 10, 2:00 pm)
Low37 °F (Jun 23, 2:00 am)31% (Jun 20, 8:00 pm)29.53 "Hg (Jun 10, 1:00 pm)
Average56 °F70%29.94 "Hg
* Reported Jun 10 1:00 pm — Jun 25 1:00 pm, Red Deer. Weather by CustomWeather, © 2017

Note: Actual official high and low records may vary slightly from our data, if they occured in-between our weather recording intervals... More about our weather records

Advertising

Red Deer Weather History for the Previous 24 Hours

Scroll right to see more
 ConditionsComfort  
Time TempWeatherWind HumidityBarometerVisibility
1:00 pm
Sun, Jun 25
73 °FPassing clouds.15 mph47%30.21 "Hg15 mi
12:00 pm72 °FPassing clouds.16 mph50%30.22 "Hg15 mi
11:00 am70 °FPassing clouds.14 mph57%30.22 "Hg15 mi
10:00 am66 °FScattered clouds.12 mph56%30.22 "Hg15 mi
9:00 am59 °FScattered clouds.7 mph77%30.24 "Hg15 mi
8:00 am54 °FPartly sunny.8 mph82%30.25 "Hg15 mi
7:00 am48 °FPartly sunny.3 mph94%30.27 "Hg15 mi
6:00 am46 °FPartly sunny.No wind87%30.27 "Hg15 mi
5:00 am43 °FPassing clouds.3 mph93%30.28 "Hg15 mi
4:00 am48 °FPassing clouds.2 mph82%30.29 "Hg15 mi
3:00 am46 °FClear.3 mph93%30.30 "Hg15 mi
2:00 am50 °FPassing clouds.3 mph82%30.31 "Hg15 mi
1:00 am50 °FPassing clouds.2 mph82%30.31 "Hg15 mi
12:00 am52 °FPassing clouds.6 mph77%30.31 "Hg15 mi
11:00 pm
Sat, Jun 24
55 °FPassing clouds.3 mph72%30.32 "Hg15 mi
10:00 pm61 °FPassing clouds.3 mph59%30.30 "Hg15 mi
9:00 pm63 °FScattered clouds.3 mph64%30.30 "Hg15 mi
8:00 pm66 °FScattered clouds.2 mph52%30.30 "Hg15 mi
7:00 pm70 °FScattered clouds.No wind43%30.30 "Hg15 mi
6:00 pm68 °FBroken clouds.No wind40%30.32 "Hg15 mi
5:00 pm70 °FScattered clouds.6 mph46%30.33 "Hg15 mi
4:00 pm68 °FScattered clouds.3 mph40%30.34 "Hg15 mi
3:00 pm68 °FPartly sunny.3 mph46%30.35 "Hg15 mi
2:00 pm66 °FPartly sunny.3 mph46%30.35 "Hg15 mi
Weather by CustomWeather, © 2017

See weather overviewHow to use our weather pages